Location: Unspecified
(33.2833°N, 0.0000°E)
Time: 09:51:26
(UTC+00:00)

ORBCOMM FM 117 - Visible Passes

Search period start: 04 April 2026 00:00
Search period end: 14 April 2026 00:00
Orbit: 695 x 700 km, 47.0° (Epoch: 28 March)

Date Brightness Start Highest point End Pass type
(mag) Time Alt. Az. Time Alt. Az. Time Alt. Az.
4 Apr ? 02:14:43 15° NE 02:14:43 15° NE 02:15:35 10° NE visible
4 Apr ? 03:53:24 14° NW 03:55:30 17° N 03:58:50 10° NE visible
5 Apr ? 02:54:58 20° N 02:54:58 20° N 02:57:45 10° NE visible
5 Apr ? 04:35:38 10° NW 04:38:53 17° N 04:42:08 10° NE visible
6 Apr ? 01:56:31 12° NE 01:56:31 12° NE 01:56:51 10° NE visible
6 Apr ? 03:35:12 13° NNW 03:37:17 16° N 03:40:27 10° NE visible
7 Apr ? 02:36:47 17° N 02:36:47 17° N 02:39:09 10° NNE visible
7 Apr ? 04:17:07 10° NNW 04:20:39 19° N 04:24:10 10° NE visible
8 Apr ? 03:17:03 13° NNW 03:19:03 17° N 03:22:15 10° NE visible
8 Apr ? 04:59:23 10° NW 05:03:47 30° NNE 05:08:10 10° E visible
9 Apr ? 02:18:39 16° NNE 02:18:39 16° NNE 02:20:40 10° NE visible
9 Apr ? 03:58:29 10° NW 04:02:21 22° NNE 04:06:13 10° ENE visible
10 Apr ? 02:59:00 15° NNW 03:00:49 18° N 03:04:12 10° NE visible
10 Apr ? 04:40:38 10° NW 04:45:20 39° NNE 04:50:02 10° E visible
11 Apr ? 02:00:45 15° NNE 02:00:45 15° NNE 02:02:23 10° NE visible
11 Apr ? 03:39:46 10° NW 03:44:00 27° NNE 03:48:14 10° E visible
12 Apr ? 02:41:19 19° N 02:42:33 20° NNE 02:46:14 10° ENE visible
12 Apr ? 04:21:53 10° NW 04:26:50 56° NNE 04:31:44 10° ESE visible
13 Apr ? 01:43:21 13° NE 01:43:21 13° NE 01:44:15 10° NE visible
13 Apr ? 03:22:04 15° NNW 03:25:35 34° NNE 03:30:09 10° E visible
13 Apr ? 05:04:20 10° WNW 05:09:12 53° SW 05:14:03 10° SE visible
13 Apr ? 19:26:04 10° SSE 19:26:18 10° SSE 19:26:18 10° SSE visible
